Regional Weather Roundup
Issued by NWS

Home | Current Version | Previous Version | Graphics & Text | Print | Product List | Glossary On
Versions: 1 2 3 4 5 6 7 8 9 10 11 12 13 14 15 16 17 18 19 20 21 22 23 24 25 26 27 28 29 30 31 32 33 34 35 36 37 38 39 40 41 42 43 44 45 46 47 48 49 50
000
ASUS45 KPSR 172010
RWRAZ

ARIZONA REGIONAL HOURLY WEATHER ROUNDUP
NATIONAL WEATHER SERVICE PHOENIX AZ
100 PM MST WED DEC 17 2014

NOTE: FAIR INDICATES FEW OR NO CLOUDS BELOW 12,000 FEET WITH NO
SIGNIFICANT WEATHER AND/OR OBSTRUCTIONS TO VISIBILITY.

AZZ001>003-036-172100-
NORTHWEST ARIZONA

CITY           SKY/WX    TMP DP  RH WIND       PRES   REMARKS
BULLHEAD CITY  CLOUDY    54  46  76 SW7       30.06F
KINGMAN        CLOUDY    46  39  76 SW12      30.03F
$$

AZZ004>008-015-016-018-172100-
NORTH CENTRAL ARIZONA

CITY           SKY/WX    TMP DP  RH WIND       PRES   REMARKS
GRAND CANYON   CLOUDY    32  31  96 SW8       30.02F FOG     WCI  25
PRESCOTT       CLOUDY    42  32  67 S8        30.04F
FLAGSTAFF      CLOUDY    33  29  85 SW9       30.01F WCI  25
PAYSON         CLOUDY    39  37  93 S5        30.07F
PAGE           LGT RAIN  41  34  76 N5        30.00F
$$

AZZ009>014-017-172100-
NORTHEAST ARIZONA

CITY           SKY/WX    TMP DP  RH WIND       PRES   REMARKS
WINSLOW        CLOUDY    42  38  85 VRB3      30.01F
SAINT JOHNS    LGT RAIN  38  36  92 NW3       30.00F
WINDOW ROCK    CLOUDY    36  31  82 SW9       29.98F WCI  29
SHOW LOW       CLOUDY    34  32  93 SW14G20   30.05F WCI  24
$$

AZZ023-172100-
GREATER PHOENIX AREA

CITY           SKY/WX    TMP DP  RH WIND       PRES   REMARKS
PHOENIX        CLOUDY    58  46  64 SW6       30.06F
BUCKEYE          N/A     55  46  71 SE3       30.08F
GLENDALE       CLOUDY    57  46  67 CALM      30.08F
LUKE AFB       PTSUNNY   57  46  68 VRB1      30.07F
DEER VALLEY    CLOUDY    54  46  74 CALM      30.06F
SCOTTSDALE     CLOUDY    55  46  71 CALM      30.07F
MESA-GATEWAY   CLOUDY    55  46  71 CALM      30.09F
CHANDLER       PTSUNNY   57  46  67 VRB6      30.07F
$$

AZZ027-028-172100-
SOUTHWEST MARICOPA COUNTY AND PINAL COUNTY

CITY           SKY/WX    TMP DP  RH WIND       PRES   REMARKS
CASA GRANDE    CLOUDY    55  46  71 CALM      30.07F
GILA BEND      LGT RAIN  59  46  62 NW3       30.07F
$$

AZZ503-504-507>509-172100-
SOUTHEAST ARIZONA

CITY           SKY/WX    TMP DP  RH WIND       PRES   REMARKS
TUCSON         CLOUDY    54  47  77 W6        30.09F
DAVIS-MONTHAN  MOSUNNY   54  48  82 W9        30.07F
RYAN FIELD       N/A     57  54  88 SW6       30.09F
NOGALES        LGT RAIN  51  42  71 S20G25    30.10F
SIERRA VISTA   MOSUNNY   54  37  54 W16G23    30.09F
DOUGLAS        MOSUNNY   52  41  66 SW7       30.09F
SAFFORD        PTSUNNY   54  42  64 NW6       30.05F
$$

AZZ020-021-025-026-031-172100-
SOUTHWEST ARIZONA

CITY           SKY/WX    TMP DP  RH WIND       PRES   REMARKS
YUMA           LGT RAIN N/A N/A N/A NE5       30.07F
$$

CAZ031-033-041-043-047-048-061-172100-
SOUTHERN CALIFORNIA

CITY           SKY/WX    TMP DP  RH WIND       PRES   REMARKS
DOWNTOWN L.A.  MOSUNNY   60  48  64 CALM      30.05F
L.A. AIRPORT   PTSUNNY   58  52  80 W9        30.06S
SAN DIEGO      PTSUNNY   65  49  56 W13       30.09F
BURBANK        MOSUNNY   59  45  59 W6        30.04F
ONTARIO        PTSUNNY   58  47  66 VRB6      30.04F
RIVERSIDE      PTSUNNY   59  46  62 VRB3      30.04F
PALM SPRINGS   PTSUNNY   58  49  72 SE6       30.07F HAZE
EL CENTRO NAS  PTSUNNY   58  53  84 CALM      30.05F
IMPERIAL       MOSUNNY   58  52  80 SE6       30.05F
BLYTHE         PTSUNNY   56  51  84 S5        30.06F
NEEDLES        CLOUDY    56  47  71 SE6       30.05F
$$

NVZ020-UTZ003-172100-
SOUTHERN NEVADA-UTAH

CITY           SKY/WX    TMP DP  RH WIND       PRES   REMARKS
LAS VEGAS      CLOUDY    52  39  61 S3        29.99F
SALT LAKE CITY PTSUNNY   39  32  76 W6        29.98F WCI  35
$$

NMZ009-TXZ055-172100-
NEW MEXICO-WEST TEXAS

CITY           SKY/WX    TMP DP  RH WIND       PRES   REMARKS
ALBUQUERQUE    PTSUNNY   42  36  79 SW3       29.98F
EL PASO        MOSUNNY   60  30  32 W21G37    30.02F
$$


........................KEY........................
SKY/WX - SKY CONDITION/WEATHER
TMP    - TEMPERATURE IN FAHRENHEIT
DP     - DEW POINT IN FAHRENHEIT
RH     - RELATIVE HUMIDITY IN PERCENT
WIND   - DIRECTION AND SPEED IN MILES PER HOUR (MPH)
VRB    - VARIABLE WIND DIRECTION
PRES   - MEAN SEA LEVEL PRESSURE IN INCHES OF MERCURY
         F - FALLING PRESSURE   R - RISING PRESSURE
         S - STEADY PRESSURE
VSB    - VISIBILITY IN MILES
HX     - HEAT INDEX IN FAHRENHEIT
WCI    - WIND CHILL INDEX IN FAHRENHEIT
TC     - TEMPERATURE IN CELSIUS WHICH IS ALSO KNOWN AS
         TEMPERATURE IN CENTIGRADE
AFB    - AIR FORCE BASE
         LUKE AFB IS LUKE AIR FORCE BASE
         DAVIS-MONTHAN IS DAVIS-MONTHAN AIR FORCE BASE
NAS    - NAVAL AIR STATION
         EL CENTRO NAS IS EL CENTRO NAVAL AIR STATION
N/A    - NOT AVAILABLE



USA.gov is the U.S. government's official web portal to all federal, state and local government web resources and services.